TimeMDT,TemperatureF,Dew PointF,Humidity,Sea Level PressureIn,VisibilityMPH,Wind Direction,Wind SpeedMPH,Gust SpeedMPH,PrecipitationIn,Events,Conditions,WindDirDegrees,DateUTC
12:53 AM,30.9,27.0,85,30.48,10.0,WNW,3.5,-,N/A,,Partly Cloudy,290,2012-10-05 06:53:00
1:53 AM,28.4,26.6,93,30.37,10.0,NNW,4.6,-,N/A,,Clear,340,2012-10-05 07:53:00
2:53 AM,28.0,25.0,88,30.48,10.0,Calm,Calm,-,N/A,,Clear,0,2012-10-05 08:53:00
3:53 AM,28.0,23.0,81,30.47,10.0,Calm,Calm,-,N/A,,Clear,0,2012-10-05 09:53:00
4:53 AM,24.1,21.9,91,30.49,10.0,SW,3.5,-,N/A,,Clear,230,2012-10-05 10:53:00
5:53 AM,23.0,21.0,92,30.50,10.0,West,5.8,-,N/A,,Clear,280,2012-10-05 11:53:00
6:53 AM,24.1,21.0,88,30.51,10.0,West,3.5,-,N/A,,Clear,280,2012-10-05 12:53:00
7:53 AM,24.1,21.0,88,30.53,9.0,Calm,Calm,-,N/A,,Clear,0,2012-10-05 13:53:00
8:53 AM,28.0,24.1,85,30.53,10.0,Calm,Calm,-,N/A,,Overcast,0,2012-10-05 14:53:00
9:53 AM,30.0,26.1,85,30.53,10.0,WSW,3.5,-,N/A,,Overcast,240,2012-10-05 15:53:00
10:53 AM,35.1,30.0,82,30.53,10.0,Variable,4.6,-,N/A,,Partly Cloudy,0,2012-10-05 16:53:00
11:53 AM,39.0,28.9,67,30.52,10.0,West,4.6,-,N/A,,Clear,270,2012-10-05 17:53:00
12:53 PM,41.0,21.9,47,30.53,10.0,North,5.8,-,N/A,,Mostly Cloudy,360,2012-10-05 18:53:00
1:53 PM,41.0,19.9,43,30.52,10.0,NW,4.6,-,N/A,,Mostly Cloudy,310,2012-10-05 19:53:00
2:53 PM,42.1,21.0,43,30.51,10.0,NNW,4.6,-,N/A,,Overcast,340,2012-10-05 20:53:00
3:53 PM,44.1,19.0,37,30.50,10.0,Calm,Calm,-,N/A,,Mostly Cloudy,0,2012-10-05 21:53:00
4:53 PM,42.1,19.0,40,30.52,10.0,Calm,Calm,-,N/A,,Mostly Cloudy,0,2012-10-05 22:53:00
5:53 PM,41.0,19.9,43,30.53,10.0,NE,3.5,-,N/A,,Overcast,40,2012-10-05 23:53:00
6:53 PM,35.6,26.6,70,30.41,10.0,NW,6.9,-,N/A,,Partly Cloudy,320,2012-10-06 00:53:00
7:53 PM,33.1,26.1,75,30.56,10.0,WNW,4.6,-,N/A,,Partly Cloudy,300,2012-10-06 01:53:00
8:53 PM,30.9,25.0,79,30.55,10.0,NNW,6.9,-,N/A,,Partly Cloudy,330,2012-10-06 02:53:00
9:53 PM,30.9,25.0,79,30.54,10.0,Calm,Calm,-,N/A,,Clear,0,2012-10-06 03:53:00
10:53 PM,30.0,24.1,79,30.52,10.0,South,5.8,-,N/A,,Clear,170,2012-10-06 04:53:00
11:53 PM,26.1,21.0,81,30.51,10.0,SSW,5.8,-,N/A,,Clear,210,2012-10-06 05:53:00